When you browse on this site, cookies collect data to enhance your experience and personalize the content and advertising you see.
Visit our Privacy Policy to learn more. By continuing to use the site, you agree to this use of cookies and data.
  • In Deutschland
  • Länderverzeichnis
  • Für 7 Tage
  • Wassertemperatur
  • Wetterkarte
  • Widgets
  • user-avatar
    Anmelden

    Stündliche Wetter Voshod

    Heute, 26 Februar, Mittwoch

    Zeit Temperatur Niederschläge Wind Luftdruck Luftfeuchtigkeit
    00:00 -14°C° 0 mm 4 m/S 745 mmHg 94%
    01:00 -14°C° 0 mm 4 m/S 744 mmHg 94%
    02:00 -14°C° 0 mm 4 m/S 744 mmHg 95%
    03:00 -14°C° 0 mm 4 m/S 743 mmHg 95%
    04:00 -14°C° 0 mm 4 m/S 742 mmHg 95%
    05:00 -12°C° 0 mm 4 m/S 741 mmHg 95%
    06:00 -12°C° 0 mm 4 m/S 740 mmHg 95%
    07:00 -12°C° 0 mm 4 m/S 740 mmHg 95%
    08:00 -11°C° 0 mm 4 m/S 739 mmHg 95%
    09:00 -11°C° 0 mm 5 m/S 738 mmHg 95%
    10:00 -10°C° 0 mm 5 m/S 737 mmHg 95%
    11:00 -8°C° 0.1 mm 5 m/S 736 mmHg 95%
    12:00 -8°C° 0.1 mm 6 m/S 735 mmHg 95%
    13:00 -8°C° 0.1 mm 6 m/S 734 mmHg 95%
    14:00 -6°C° 0.7 mm 6 m/S 733 mmHg 95%
    15:00 -6°C° 0.7 mm 6 m/S 732 mmHg 95%
    16:00 -6°C° 0.7 mm 5 m/S 732 mmHg 96%
    17:00 -6°C° 0.9 mm 5 m/S 731 mmHg 96%
    18:00 -5°C° 0.9 mm 4 m/S 730 mmHg 96%
    19:00 -5°C° 0.9 mm 3 m/S 730 mmHg 96%
    20:00 -7°C° 0.4 mm 4 m/S 730 mmHg 96%
    21:00 -7°C° 0.4 mm 4 m/S 730 mmHg 96%
    22:00 -7°C° 0.4 mm 4 m/S 730 mmHg 96%
    23:00 -7°C° 0.3 mm 5 m/S 730 mmHg 95%

    Morgen, 27 Februar, Donnerstag

    Zeit Temperatur Niederschläge Wind Luftdruck Luftfeuchtigkeit
    00:00 -7°C° 0.3 mm 5 m/S 730 mmHg 95%
    01:00 -8°C° 0.3 mm 5 m/S 731 mmHg 95%
    02:00 -9°C° 0.2 mm 6 m/S 732 mmHg 94%
    03:00 -9°C° 0.2 mm 6 m/S 733 mmHg 93%
    04:00 -9°C° 0.2 mm 6 m/S 734 mmHg 92%
    05:00 -8°C° 0 mm 7 m/S 735 mmHg 91%
    06:00 -8°C° 0 mm 7 m/S 736 mmHg 90%
    07:00 -7°C° 0 mm 7 m/S 737 mmHg 89%
    08:00 -7°C° 0 mm 7 m/S 738 mmHg 87%
    09:00 -7°C° 0 mm 7 m/S 739 mmHg 84%
    10:00 -8°C° 0 mm 7 m/S 740 mmHg 82%
    11:00 -7°C° 0 mm 7 m/S 741 mmHg 80%
    12:00 -6°C° 0 mm 7 m/S 741 mmHg 79%
    13:00 -5°C° 0 mm 6 m/S 742 mmHg 78%
    14:00 -5°C° 0 mm 5 m/S 743 mmHg 79%
    15:00 -4°C° 0 mm 4 m/S 743 mmHg 80%
    16:00 -4°C° 0 mm 3 m/S 743 mmHg 81%
    17:00 -4°C° 0 mm 3 m/S 744 mmHg 84%
    18:00 -4°C° 0 mm 4 m/S 744 mmHg 87%
    19:00 -4°C° 0 mm 4 m/S 745 mmHg 89%
    20:00 -4°C° 0 mm 4 m/S 745 mmHg 89%
    21:00 -4°C° 0 mm 4 m/S 746 mmHg 89%
    22:00 -3°C° 0 mm 4 m/S 746 mmHg 89%
    23:00 -4°C° 0 mm 3 m/S 746 mmHg 90%

    übermorgen, 28 Februar, Freitag

    Zeit Temperatur Niederschläge Wind Luftdruck Luftfeuchtigkeit
    00:00 -5°C° 0 mm 3 m/S 746 mmHg 90%
    01:00 -5°C° 0 mm 3 m/S 747 mmHg 90%
    02:00 -5°C° 0 mm 3 m/S 747 mmHg 91%
    03:00 -5°C° 0 mm 3 m/S 747 mmHg 91%
    04:00 -5°C° 0 mm 4 m/S 747 mmHg 91%
    05:00 -4°C° 0 mm 4 m/S 747 mmHg 91%
    06:00 -4°C° 0 mm 4 m/S 747 mmHg 91%
    07:00 -4°C° 0 mm 4 m/S 748 mmHg 91%
    08:00 -3°C° 0.1 mm 4 m/S 748 mmHg 94%
    09:00 -2°C° 0.1 mm 5 m/S 748 mmHg 97%
    10:00 -2°C° 0.1 mm 5 m/S 748 mmHg 99%
    11:00 -2°C° 0.1 mm 5 m/S 748 mmHg 99%
    12:00 -1°C° 0.1 mm 5 m/S 748 mmHg 99%
    13:00 -1°C° 0.1 mm 5 m/S 748 mmHg 99%
    14:00 -1°C° 0 mm 4 m/S 748 mmHg 97%
    15:00 -1°C° 0 mm 4 m/S 748 mmHg 95%
    16:00 -1°C° 0 mm 4 m/S 748 mmHg 93%
    17:00 -1°C° 0 mm 4 m/S 749 mmHg 92%
    18:00 -2°C° 0 mm 4 m/S 749 mmHg 91%
    19:00 -2°C° 0 mm 4 m/S 749 mmHg 90%
    20:00 -2°C° 0 mm 4 m/S 749 mmHg 90%
    21:00 -3°C° 0 mm 4 m/S 750 mmHg 91%
    22:00 -2°C° 0 mm 3 m/S 750 mmHg 91%
    23:00 -2°C° 0 mm 3 m/S 750 mmHg 91%

    29 Februar, Samstag

    Zeit Temperatur Niederschläge Wind Luftdruck Luftfeuchtigkeit
    00:00 -2°C° 0 mm 3 m/S 750 mmHg 91%
    01:00 -2°C° 0 mm 3 m/S 750 mmHg 92%
    02:00 -2°C° 0 mm 3 m/S 750 mmHg 91%
    03:00 -4°C° 0 mm 4 m/S 750 mmHg 91%
    04:00 -4°C° 0 mm 4 m/S 750 mmHg 91%
    05:00 -4°C° 0 mm 4 m/S 750 mmHg 90%
    06:00 -5°C° 0 mm 4 m/S 750 mmHg 89%
    07:00 -6°C° 0 mm 5 m/S 750 mmHg 88%
    08:00 -5°C° 0 mm 5 m/S 750 mmHg 85%
    09:00 -5°C° 0 mm 6 m/S 750 mmHg 82%
    10:00 -4°C° 0 mm 7 m/S 749 mmHg 78%
    11:00 -4°C° 0 mm 7 m/S 749 mmHg 78%
    12:00 -3°C° 0 mm 7 m/S 749 mmHg 77%
    13:00 -3°C° 0 mm 7 m/S 749 mmHg 76%
    14:00 -3°C° 0 mm 7 m/S 748 mmHg 77%
    15:00 -4°C° 0 mm 7 m/S 748 mmHg 77%
    16:00 -4°C° 0 mm 7 m/S 748 mmHg 77%
    17:00 -6°C° 0 mm 7 m/S 747 mmHg 80%
    18:00 -6°C° 0 mm 7 m/S 747 mmHg 82%
    19:00 -6°C° 0 mm 6 m/S 746 mmHg 84%
    20:00 -6°C° 0 mm 6 m/S 746 mmHg 85%
    21:00 -6°C° 0 mm 6 m/S 746 mmHg 86%
    22:00 -8°C° 0 mm 6 m/S 746 mmHg 87%
    23:00 -8°C° 0 mm 6 m/S 746 mmHg 89%

    1 März, Sonntag

    Zeit Temperatur Niederschläge Wind Luftdruck Luftfeuchtigkeit
    00:00 -9°C° 0 mm 6 m/S 746 mmHg 90%
    01:00 -8°C° 0 mm 5 m/S 746 mmHg 91%
    02:00 -10°C° 0 mm 5 m/S 746 mmHg 92%
    03:00 -10°C° 0 mm 4 m/S 746 mmHg 93%
    04:00 -10°C° 0 mm 4 m/S 747 mmHg 93%
    05:00 -11°C° 0 mm 4 m/S 747 mmHg 93%
    06:00 -10°C° 0 mm 3 m/S 747 mmHg 93%
    07:00 -12°C° 0 mm 3 m/S 747 mmHg 93%
    08:00 -9°C° 0 mm 3 m/S 748 mmHg 93%
    09:00 -8°C° 0 mm 3 m/S 748 mmHg 92%
    10:00 -6°C° 0 mm 3 m/S 748 mmHg 92%
    11:00 -5°C° 0 mm 3 m/S 748 mmHg 92%
    12:00 -3°C° 0 mm 2 m/S 749 mmHg 93%
    13:00 -3°C° 0 mm 2 m/S 749 mmHg 93%
    14:00 -3°C° 0 mm 2 m/S 749 mmHg 94%
    15:00 -3°C° 0 mm 2 m/S 749 mmHg 94%
    16:00 -3°C° 0 mm 2 m/S 749 mmHg 95%
    17:00 -1°C° 0 mm 1 m/S 749 mmHg 95%
    18:00 -2°C° 0 mm 1 m/S 749 mmHg 95%
    19:00 -2°C° 0 mm 1 m/S 749 mmHg 95%
    20:00 -2°C° 0 mm 1 m/S 750 mmHg 94%
    21:00 -3°C° 0 mm 0 m/S 750 mmHg 94%
    22:00 -2°C° 0 mm 0 m/S 750 mmHg 93%
    23:00 -1°C° 0 mm 1 m/S 750 mmHg 93%

    2 März, Montag

    Zeit Temperatur Niederschläge Wind Luftdruck Luftfeuchtigkeit
    00:00 -2°C° 0 mm 1 m/S 750 mmHg 92%
    01:00 -2°C° 0 mm 1 m/S 750 mmHg 92%
    02:00 -4°C° 0 mm 2 m/S 750 mmHg 93%
    03:00 -5°C° 0 mm 2 m/S 750 mmHg 93%
    04:00 -5°C° 0 mm 2 m/S 750 mmHg 93%
    05:00 -7°C° 0 mm 2 m/S 750 mmHg 93%
    06:00 -8°C° 0 mm 2 m/S 751 mmHg 93%
    07:00 -9°C° 0 mm 2 m/S 751 mmHg 92%
    08:00 -7°C° 0 mm 2 m/S 751 mmHg 92%
    09:00 -6°C° 0 mm 2 m/S 751 mmHg 92%
    10:00 -5°C° 0 mm 2 m/S 752 mmHg 92%
    11:00 -4°C° 0 mm 2 m/S 752 mmHg 92%
    12:00 -3°C° 0 mm 2 m/S 752 mmHg 92%
    13:00 -2°C° 0 mm 2 m/S 752 mmHg 93%
    14:00 -2°C° 0 mm 2 m/S 752 mmHg 93%
    15:00 -3°C° 0 mm 2 m/S 752 mmHg 93%
    16:00 -1°C° 0 mm 1 m/S 752 mmHg 93%
    17:00 -2°C° 0 mm 1 m/S 753 mmHg 93%
    18:00 -3°C° 0 mm 1 m/S 753 mmHg 93%
    19:00 -6°C° 0 mm 1 m/S 753 mmHg 93%
    20:00 -6°C° 0 mm 1 m/S 754 mmHg 93%
    21:00 -7°C° 0 mm 1 m/S 754 mmHg 93%
    22:00 -7°C° 0 mm 0 m/S 754 mmHg 93%
    23:00 -8°C° 0 mm 0 m/S 754 mmHg 94%
    Mehr zeigen